Missoula, MT

9:00 AM MDT on March 26, 2017 (GMT -0600)
Missoula International

Weather History for KMSO - January, 2014

Change the Weather History Date:

Sunday, January 26, 2014

  Actual Average Record
Temperature  
Mean Temperature 25 °F 27 °F  
Max Temperature 34 °F 35 °F 48 °F (2003)
Min Temperature 15 °F 20 °F -33 °F (1957)
Degree Days  
Heating Degree Days 40 38  
Month to date heating degree days 903 1028  
Since 1 July heating degree days 4060 4200  
Cooling Degree Days 0 0  
Month to date cooling degree days 0 0  
Year to date cooling degree days 0 0  
Moisture  
Dew Point 16 °F    
Average Humidity 71    
Maximum Humidity 96    
Minimum Humidity 46    
Precipitation  
Precipitation 0.00 in 0.03 in 0.39 in (1894)
Month to date precipitation 0.39 0.73  
Year to date precipitation 0.39 0.73  
Snow  
Snow 0.00 in - - ()
Month to date snowfall 0.9  
Year to date snowfall 0.9  
Since 1 July snowfall 14.8  
Snow Depth 0.00 in    
Sea Level Pressure  
Sea Level Pressure 30.24 in    
Wind  
Wind Speed 6 mph (ESE)    
Max Wind Speed 24 mph    
Max Gust Speed 30 mph    
Visibility 4 miles    
Events Fog    
T = Trace of Precipitation, MM = Missing Value Source: NWS Daily Summary

Daily Weather History Graph

Daily Weather History Graph

Search for Another Location

Airport or City:

Trip Planner

Search our weather history database for the weather conditions in past years. The results will help you decide how hot, cold, wet, or windy it might be!

Date:

Astronomy

Jan. 26, 2014 Rise Set
Actual Time 8:07 AM MST 5:30 PM MST
Civil Twilight 7:34 AM MST 6:03 PM MST
Nautical Twilight 6:57 AM MST 6:40 PM MST
Astronomical Twilight 6:22 AM MST 7:16 PM MST
Moon 3:51 AM MST 1:21 PM MST
Length of Visible Light 10h 28m
Length of Day
9h 22m
Waning Crescent, 23% of the Moon is Illuminated
Jan 26
Waning Crescent
Jan 30
New
Feb 6
First Quarter
Feb 14
Full
Feb 22
Last Quarter

Hourly Weather History & Observations

Time (MST) Temp. Windchill Dew Point Humidity Pressure Visibility Wind Dir Wind Speed Gust Speed Precip Events Conditions
12:21 AM 17.6 °F - 15.8 °F 93% 30.18 in 1.0 mi Calm Calm - N/A   Mist
12:25 AM 17.6 °F - 15.8 °F 93% 30.18 in 0.8 mi Calm Calm - N/A   Mist
12:37 AM 19.4 °F - 17.6 °F 93% 30.18 in 1.2 mi Calm Calm - N/A   Mist
12:40 AM 17.6 °F - 15.8 °F 93% 30.18 in 2.0 mi Calm Calm - N/A   Mist
12:48 AM 17.6 °F - 15.8 °F 93% 30.17 in 1.2 mi Calm Calm - N/A   Mist
12:53 AM 16.0 °F - 14.0 °F 92% 30.31 in 0.8 mi Calm Calm - N/A   Mist
1:01 AM 15.8 °F - 12.2 °F 86% 30.17 in 1.0 mi Calm Calm - N/A   Mist
1:04 AM 15.8 °F - 12.2 °F 86% 30.17 in 1.5 mi Calm Calm - N/A   Mostly Cloudy
1:08 AM 15.8 °F - 14.0 °F 93% 30.17 in 1.0 mi Calm Calm - N/A   Mist
1:15 AM 15.8 °F - 14.0 °F 93% 30.17 in 0.5 mi Calm Calm - N/A Fog Light Freezing Fog
1:39 AM 15.8 °F - 14.0 °F 93% 30.17 in 1.2 mi Calm Calm - N/A   Mostly Cloudy
1:41 AM 15.8 °F - 14.0 °F 93% 30.17 in 2.0 mi Calm Calm - N/A   Mostly Cloudy
1:49 AM 15.8 °F - 12.2 °F 86% 30.16 in 5.0 mi Calm Calm - N/A   Mostly Cloudy
1:53 AM 15.1 °F - 12.9 °F 91% 30.30 in 4.0 mi Calm Calm - N/A   Mostly Cloudy
2:27 AM 15.8 °F - 15.8 °F 100% 30.16 in 1.5 mi Calm Calm - N/A   Mostly Cloudy
2:29 AM 15.8 °F - 15.8 °F 100% 30.16 in 0.8 mi Calm Calm - N/A   Mist
2:42 AM 15.8 °F - 15.8 °F 100% 30.16 in 0.2 mi Calm Calm - N/A Fog Light Freezing Fog
2:53 AM 16.0 °F - 14.0 °F 92% 30.30 in 0.2 mi Calm Calm - N/A Fog Light Freezing Fog
3:10 AM 17.6 °F - 15.8 °F 93% 30.16 in 0.5 mi Calm Calm - N/A Fog Light Freezing Fog
3:35 AM 17.6 °F - 15.8 °F 93% 30.15 in 1.2 mi Calm Calm - N/A   Scattered Clouds
3:42 AM 17.6 °F - 15.8 °F 93% 30.15 in 1.5 mi Calm Calm - N/A   Scattered Clouds
3:46 AM 17.6 °F - 15.8 °F 93% 30.15 in 1.0 mi Calm Calm - N/A   Mist
3:51 AM 17.6 °F - 15.8 °F 93% 30.15 in 0.2 mi Calm Calm - N/A Fog Light Freezing Fog
3:53 AM 16.0 °F - 14.0 °F 92% 30.29 in 0.2 mi Calm Calm - N/A Fog Light Freezing Fog
4:53 AM 16.0 °F - 14.0 °F 92% 30.30 in 0.2 mi Calm Calm - N/A Fog Light Freezing Fog
5:34 AM 17.6 °F - 12.2 °F 79% 30.16 in 0.5 mi Calm Calm - N/A Fog Light Freezing Fog
5:39 AM 17.6 °F - 14.0 °F 86% 30.16 in 1.2 mi Calm Calm - N/A   Scattered Clouds
5:42 AM 17.6 °F - 14.0 °F 86% 30.16 in 2.0 mi Calm Calm - N/A   Scattered Clouds
5:53 AM 17.1 °F - 14.0 °F 88% 30.29 in 5.0 mi Calm Calm - N/A   Mostly Cloudy
6:00 AM 17.6 °F - 14.0 °F 86% 30.16 in 2.0 mi Calm Calm - N/A   Mostly Cloudy
6:19 AM 15.8 °F - 12.2 °F 86% 30.16 in 4.0 mi Calm Calm - N/A   Mostly Cloudy
6:25 AM 15.8 °F - 14.0 °F 93% 30.16 in 0.5 mi Calm Calm - N/A Fog Light Freezing Fog
6:34 AM 15.8 °F - 14.0 °F 93% 30.16 in 0.5 mi Calm Calm - N/A Fog Light Freezing Fog
6:53 AM 17.1 °F - 14.0 °F 88% 30.30 in 0.5 mi Calm Calm - N/A Fog Light Freezing Fog
7:20 AM 17.6 °F - 15.8 °F 93% 30.17 in 0.8 mi Calm Calm - N/A   Overcast
7:23 AM 17.6 °F - 15.8 °F 93% 30.17 in 1.2 mi Calm Calm - N/A   Overcast
7:26 AM 17.6 °F - 15.8 °F 93% 30.17 in 2.0 mi Calm Calm - N/A   Overcast
7:35 AM 19.4 °F - 15.8 °F 86% 30.18 in 4.0 mi Calm Calm - N/A   Overcast
7:53 AM 21.0 °F - 18.0 °F 88% 30.32 in 5.0 mi Calm Calm - N/A   Overcast
8:53 AM 19.9 °F - 17.1 °F 89% 30.33 in 6.0 mi Calm Calm - N/A   Overcast
9:53 AM 23.0 °F - 21.0 °F 92% 30.34 in 6.0 mi Calm Calm - N/A   Overcast
10:53 AM 25.0 °F - 23.0 °F 92% 30.35 in 5.0 mi Calm Calm - N/A   Overcast
11:53 AM 26.1 °F - 24.1 °F 92% 30.35 in 6.0 mi Calm Calm - N/A   Overcast
12:53 PM 28.0 °F 21.7 °F 26.1 °F 92% 30.33 in 7.0 mi West 5.8 mph - N/A   Overcast
1:53 PM 28.9 °F 22.8 °F 27.0 °F 92% 30.31 in 8.0 mi WNW 5.8 mph - N/A   Overcast
2:53 PM 30.0 °F - 28.0 °F 92% 30.31 in 10.0 mi Calm Calm - N/A   Overcast
3:07 PM 30.2 °F - 28.4 °F 93% 30.19 in 10.0 mi Calm Calm - N/A   Overcast
3:53 PM 32.0 °F 22.1 °F 23.0 °F 69% 30.32 in 10.0 mi East 13.8 mph - N/A   Overcast
4:53 PM 34.0 °F 23.4 °F 21.0 °F 59% 30.32 in 10.0 mi East 17.3 mph - N/A   Overcast
5:53 PM 33.1 °F 24.9 °F 19.0 °F 56% 30.32 in 10.0 mi ESE 10.4 mph 20.7 mph N/A   Overcast
6:53 PM 30.0 °F 17.5 °F 17.1 °F 59% 30.34 in 10.0 mi ESE 19.6 mph 26.5 mph N/A   Overcast
7:53 PM 28.9 °F 16.9 °F 15.1 °F 56% 30.33 in 10.0 mi ESE 17.3 mph 25.3 mph N/A   Overcast
8:53 PM 28.0 °F 16.5 °F 14.0 °F 56% 30.35 in 10.0 mi ESE 15.0 mph - N/A   Overcast
9:53 PM 28.0 °F 15.3 °F 12.0 °F 51% 30.34 in 10.0 mi ESE 18.4 mph - N/A   Overcast
10:53 PM 28.0 °F 15.7 °F 10.0 °F 47% 30.34 in 10.0 mi SE 17.3 mph - N/A   Overcast
11:53 PM 28.0 °F 17.0 °F 9.0 °F 45% 30.35 in 10.0 mi SE 13.8 mph - N/A   Overcast